Wind_Speed
40 39 40 41 39 39 41 43 46 45 46 47 49 50 50 50 50 51 51 52 52 52 51 51 50 50 50 51 51 52 52 53 55 56 58 59 60 60 60 60 59 58 57 56
36 35 37 37 34 36 38 39 40 41 42 43 45 47 47 48 49 49 49 49 49 49 50 50 51 51 51 52 53 53 54 55 56 57 57 57 57 56 55 55 54 53 53 54
32 32 32 30 31 33 34 35 37 39 41 43 43 43 44 45 46 47 46 46 47 48 49 50 51 52 52 53 53 54 55 55 55 55 54 53 52 51 51 51 49 49 50 52
32 32 31 30 31 33 35 35 36 38 40 41 42 42 43 44 45 46 47 47 48 49 50 51 52 53 53 52 52 52 52 52 51 50 49 49 48 48 48 48 48 49 50 50
33 34 33 30 34 36 37 37 39 41 42 42 43 44 46 47 48 49 50 51 51 52 52 53 53 53 52 51 51 51 50 49 49 48 47 47 47 47 47 47 48 48 49 50
33 36 37 36 38 40 41 43 44 45 45 46 48 49 49 50 51 51 52 53 53 53 54 54 54 53 52 51 51 51 50 50 49 48 48 48 48 48 48 48 48 49 50 50
35 38 39 40 42 45 47 49 50 51 51 52 53 54 55 56 56 56 56 56 56 56 56 56 56 55 54 52 52 51 50 50 49 49 49 49 49 50 50 50 50 50 51 52
39 41 42 44 47 49 51 53 54 55 56 57 58 59 59 60 61 61 61 60 60 59 58 58 57 56 54 53 52 51 50 50 50 50 51 51 51 51 51 51 51 52 53 54
44 45 47 50 52 53 55 57 58 59 60 62 63 64 64 64 65 65 64 64 63 61 60 58 58 57 55 53 52 51 51 51 52 52 52 52 53 53 53 53 54 54 55 55
50 49 52 54 56 57 59 60 62 63 65 66 67 67 68 68 68 68 67 66 64 62 60 58 57 56 56 54 53 52 53 53 53 53 53 54 54 54 54 55 55 55 55 56
55 55 57 59 60 62 63 65 66 67 68 69 70 70 70 70 70 69 67 65 63 61 59 57 57 56 55 55 54 54 54 53 53 53 54 54 54 54 55 55 55 55 56 55
60 60 62 63 65 67 68 69 70 70 71 71 71 71 71 71 70 68 66 63 61 59 58 57 56 56 56 56 55 54 53 53 53 53 53 53 53 53 54 54 54 54 54 54
62 63 65 66 68 70 71 71 72 72 72 72 71 71 71 70 68 66 63 62 60 58 57 57 56 56 56 55 53 53 52 52 51 51 52 52 52 53 53 53 53 53 53 53
65 67 68 69 70 71 72 72 72 72 71 71 70 70 69 68 65 63 61 59 58 56 56 56 54 54 53 52 51 50 50 50 51 51 51 51 51 51 52 51 51 52 53 53
68 69 70 70 71 71 71 71 70 70 69 68 68 67 66 64 62 59 58 57 56 55 55 54 53 52 51 51 50 50 50 49 49 49 49 50 50 51 50 51 52 52 52 52
68 69 70 69 69 69 68 67 67 66 65 65 64 63 62 60 58 56 55 55 55 54 54 53 51 50 50 49 48 48 48 48 48 48 48 48 49 49 50 51 51 51 50 49
68 67 67 66 65 65 64 63 63 62 62 61 60 59 57 56 54 53 53 53 53 52 52 50 49 48 48 48 47 46 46 46 47 47 47 48 48 49 49 50 49 48 46 44
67 66 65 64 62 61 60 59 59 58 58 57 56 55 54 53 52 51 51 51 51 50 50 49 48 47 47 47 46 45 44 45 45 45 46 46 47 47 48 47 46 43 40 38
63 62 61 59 58 57 56 56 55 55 54 54 53 52 52 52 52 51 50 50 50 48 46 46 46 46 46 45 44 44 43 43 44 44 45 45 45 45 45 44 42 39 37 36
58 57 56 55 55 54 54 53 53 53 53 53 53 52 51 51 51 50 49 48 48 46 44 43 43 43 43 42 42 42 42 42 42 43 43 43 43 44 43 41 39 36 34 32
53 52 52 52 52 52 52 52 52 52 52 52 52 51 51 50 49 48 47 46 45 45 44 43 43 42 41 41 41 41 40 41 41 42 42 42 42 42 40 38 35 32 29 26
49 49 49 49 50 50 50 51 51 51 50 50 50 50 49 48 47 47 46 46 44 44 43 42 41 41 40 40 39 39 39 40 40 41 41 41 40 39 36 33 30 27 24 22
47 47 47 48 48 48 48 49 49 49 48 48 48 48 48 47 46 45 44 43 43 42 41 40 39 38 38 38 37 37 38 38 39 39 39 38 37 35 32 28 25 22 20 18
46 46 46 46 47 47 46 46 46 46 46 46 46 46 46 45 44 44 43 42 42 41 39 39 38 37 36 36 36 36 36 37 37 37 37 35 33 31 27 24 21 18 15 14
45 45 45 45 45 44 44 44 44 44 44 43 43 43 43 43 43 41 41 40 40 39 38 37 35 34 34 34 34 34 34 34 35 34 33 31 28 25 22 18 15 13 11 9
44 43 43 43 43 43 43 43 43 43 43 43 42 41 41 41 41 40 40 39 38 37 36 34 33 32 32 32 32 32 32 32 32 31 29 26 23 20 17 13 11 9 6 4
42 42 42 42 42 43 43 43 43 43 43 43 42 41 40 40 39 38 38 36 35 34 33 31 30 30 30 30 30 30 29 29 29 27 24 21 18 16 13 11 8 5 2 1
Wind_Direction
295 297 297 298 302 303 300 300 301 304 303 303 301 303 305 305 305 305 304 304 303 303 302 302 301 299 298 297 296 295 295 294 293 293 293 294 294 294 295 295 295 295 295 295
296 297 297 300 303 300 300 301 303 304 305 303 305 307 308 308 308 307 307 307 306 305 304 303 301 300 298 297 296 295 294 294 293 293 294 293 294 294 294 294 294 295 295 295
298 299 300 304 305 303 304 305 305 306 306 308 309 310 311 310 310 311 311 311 309 307 305 304 302 300 299 298 297 295 295 294 293 294 294 294 294 294 294 294 294 295 295 296
303 304 305 310 307 305 306 307 306 307 308 310 311 312 312 313 313 313 312 312 311 310 308 306 304 302 301 300 299 298 297 295 294 295 295 295 295 295 295 294 294 295 295 296
302 304 307 310 306 306 307 308 307 309 311 311 312 312 313 313 313 313 313 312 311 310 309 307 305 303 302 300 299 298 298 297 295 295 295 296 296 296 295 295 295 295 295 296
301 303 307 310 307 307 307 306 309 310 311 311 310 310 311 311 311 311 310 309 309 309 308 307 305 304 302 300 299 299 298 296 295 295 295 295 296 296 295 295 296 296 296 296
299 301 304 304 304 304 305 308 309 309 309 309 309 309 309 308 308 309 308 307 307 306 306 306 304 303 301 299 298 298 297 296 295 295 295 295 295 295 296 296 296 296 296 296
299 300 302 301 301 302 304 305 306 306 306 305 305 305 306 306 306 306 306 305 305 305 304 303 302 301 299 297 297 297 296 296 295 295 295 295 295 295 295 296 296 296 297 297
297 298 299 299 300 302 303 303 303 303 303 303 303 304 304 304 304 304 304 304 304 304 303 301 300 299 297 296 296 295 295 295 295 295 295 295 295 295 295 296 296 297 297 297
293 295 296 298 299 300 300 301 301 300 301 301 302 302 302 302 302 303 303 303 303 303 301 300 298 297 296 296 295 294 294 295 296 296 296 296 297 296 296 296 297 297 298 298
293 296 296 297 298 298 298 299 299 299 299 300 300 301 301 301 302 302 303 303 302 301 300 299 298 296 295 295 295 295 295 296 296 296 297 297 298 298 298 298 299 299 299 299
295 296 296 297 297 297 298 298 298 298 298 299 300 300 301 301 302 302 302 302 301 301 300 299 297 296 296 296 297 296 296 297 297 297 298 298 299 299 299 300 300 301 301 301
294 294 294 295 295 296 297 297 297 298 299 299 300 300 300 301 301 301 301 301 301 300 299 299 298 297 297 298 298 298 299 299 300 300 300 300 301 301 301 302 302 302 302 302
292 293 294 294 295 296 296 297 297 298 298 299 299 300 300 300 300 301 301 301 301 300 299 298 298 299 299 299 299 300 301 301 302 302 302 303 303 303 304 304 304 304 304 303
292 293 293 294 295 295 296 297 297 298 298 299 299 299 299 300 301 301 301 300 300 299 299 298 299 299 299 300 300 301 302 303 303 304 304 304 304 305 306 306 306 306 306 305
292 293 294 294 295 296 296 297 297 297 298 298 298 299 299 300 301 301 300 300 299 298 298 298 299 299 299 301 302 303 303 304 305 305 305 306 307 307 307 308 308 308 308 307
292 293 294 295 296 297 297 298 298 298 298 298 298 299 299 299 299 299 299 300 300 300 299 299 300 300 301 302 304 305 305 306 306 306 307 308 308 308 308 310 310 310 309 309
293 295 296 297 298 298 298 298 298 298 298 299 300 300 300 299 299 299 299 300 301 301 301 301 301 302 303 304 305 306 307 307 308 308 308 309 309 310 310 311 312 311 310 311
295 296 296 297 297 297 297 297 297 298 299 299 300 300 300 300 300 300 301 301 301 301 302 302 303 303 304 305 307 308 308 308 309 310 310 311 311 311 311 312 312 310 310 311
294 295 295 295 295 296 297 297 297 299 300 300 301 301 301 300 300 300 300 302 303 303 303 303 304 305 306 307 308 309 309 310 311 312 312 312 312 312 313 312 311 310 309 310
293 293 293 293 294 296 296 297 298 299 301 301 301 301 301 301 300 300 300 301 303 304 304 305 305 305 306 307 308 309 310 312 313 313 313 313 314 314 313 312 311 310 309 309
291 292 293 294 295 296 297 298 299 300 301 301 301 302 302 302 301 301 302 302 302 303 304 305 305 305 306 307 308 309 311 313 314 315 315 315 315 315 314 313 311 310 310 308
291 293 294 296 297 298 298 299 300 301 301 301 302 302 302 302 302 301 302 303 303 304 305 305 305 306 308 309 310 311 312 314 315 316 317 317 318 318 316 314 312 310 308 306
291 293 295 297 299 300 300 300 301 302 302 303 303 304 303 302 303 303 303 303 304 304 305 305 306 307 308 310 311 312 314 316 317 318 319 319 321 320 318 316 313 309 305 302
291 294 296 298 300 301 302 302 302 303 303 304 304 304 303 303 303 303 303 304 304 305 305 305 306 307 309 310 312 314 316 317 318 320 321 322 323 323 322 320 316 312 306 300
292 294 297 299 301 303 304 304 305 305 305 305 305 304 303 303 302 303 303 303 304 304 305 306 306 307 309 311 313 316 317 319 320 322 324 325 326 327 329 329 325 320 313 308
291 293 296 299 301 303 305 306 306 307 307 306 305 304 303 302 302 302 303 302 303 305 305 305 306 307 309 311 314 317 319 320 322 324 326 327 329 331 334 335 337 339 346 26
Height
5777 5775 5770 5767 5766 5762 5756 5752 5746 5743 5738 5734 5726 5721 5717 5713 5708 5703 5698 5693 5688 5682 5677 5672 5666 5661 5656 5650 5644 5639 5633 5627 5621 5615 5608 5601 5595 5588 5581 5574 5567 5560 5554 5547
5768 5766 5761 5759 5758 5752 5747 5743 5737 5733 5728 5723 5717 5712 5707 5701 5696 5691 5685 5680 5674 5668 5663 5657 5651 5646 5641 5635 5629 5623 5617 5611 5605 5598 5592 5585 5578 5571 5565 5558 5551 5545 5539 5532
5758 5755 5753 5751 5748 5743 5739 5735 5730 5724 5720 5713 5708 5703 5697 5691 5685 5679 5673 5667 5661 5655 5649 5643 5637 5631 5625 5619 5614 5607 5601 5595 5588 5582 5575 5569 5562 5556 5549 5543 5537 5531 5524 5517
5748 5747 5744 5745 5738 5733 5729 5726 5721 5715 5710 5705 5699 5694 5687 5681 5674 5668 5662 5655 5649 5643 5636 5630 5623 5616 5610 5604 5598 5592 5586 5579 5573 5566 5560 5554 5547 5541 5535 5529 5523 5517 5510 5504
5740 5736 5735 5735 5729 5723 5719 5716 5711 5706 5701 5695 5690 5684 5678 5670 5663 5656 5650 5643 5636 5630 5623 5616 5609 5603 5596 5590 5583 5577 5571 5565 5558 5552 5546 5540 5534 5528 5521 5515 5509 5503 5496 5490
5732 5726 5724 5724 5718 5712 5709 5705 5700 5695 5689 5684 5678 5673 5669 5660 5653 5646 5639 5632 5624 5617 5610 5603 5596 5589 5582 5576 5569 5563 5557 5551 5544 5538 5533 5527 5521 5514 5508 5502 5496 5489 5483 5477
5723 5717 5716 5713 5707 5702 5698 5694 5688 5682 5677 5672 5665 5659 5654 5647 5640 5633 5626 5619 5612 5604 5597 5589 5582 5576 5569 5562 5556 5550 5544 5537 5531 5525 5519 5513 5507 5501 5494 5488 5482 5476 5470 5463
5713 5709 5708 5701 5695 5691 5687 5681 5675 5670 5664 5659 5653 5646 5640 5633 5626 5619 5612 5605 5597 5590 5583 5575 5568 5562 5555 5549 5543 5537 5530 5524 5517 5511 5505 5499 5493 5487 5480 5474 5468 5461 5455 5448
5703 5700 5695 5688 5683 5679 5673 5669 5663 5657 5651 5644 5638 5632 5626 5619 5611 5604 5597 5590 5582 5575 5569 5561 5553 5546 5540 5534 5528 5523 5516 5509 5503 5497 5490 5484 5478 5472 5466 5459 5453 5447 5440 5434
5689 5688 5683 5677 5671 5666 5661 5655 5649 5642 5636 5629 5623 5617 5610 5603 5595 5588 5581 5574 5567 5560 5553 5546 5538 5530 5524 5519 5513 5507 5501 5495 5489 5483 5476 5470 5463 5457 5450 5444 5438 5432 5425 5419
5676 5675 5670 5664 5657 5652 5646 5640 5634 5627 5620 5613 5607 5600 5593 5586 5579 5572 5565 5557 5550 5544 5537 5530 5523 5516 5509 5503 5498 5492 5486 5480 5474 5468 5461 5455 5449 5442 5436 5429 5423 5417 5410 5404
5663 5658 5653 5649 5641 5635 5630 5624 5617 5611 5604 5597 5590 5584 5577 5569 5562 5555 5548 5541 5534 5528 5521 5514 5507 5501 5494 5488 5482 5477 5471 5465 5459 5453 5447 5440 5434 5428 5421 5415 5408 5401 5395 5389
5647 5642 5637 5632 5625 5619 5613 5606 5600 5593 5586 5580 5573 5566 5559 5552 5545 5538 5531 5524 5518 5512 5504 5497 5491 5485 5479 5473 5467 5461 5456 5450 5444 5438 5432 5426 5420 5414 5408 5401 5394 5387 5381 5374
5630 5626 5621 5614 5608 5602 5595 5589 5582 5576 5569 5562 5555 5548 5542 5535 5529 5522 5515 5508 5502 5495 5488 5481 5476 5470 5464 5458 5453 5447 5441 5436 5430 5424 5418 5412 5406 5399 5393 5387 5380 5373 5367 5360
5611 5606 5602 5596 5590 5584 5578 5571 5565 5559 5552 5545 5538 5531 5525 5519 5513 5507 5499 5492 5487 5480 5473 5467 5462 5457 5450 5445 5440 5434 5429 5423 5417 5411 5405 5399 5392 5386 5380 5373 5366 5359 5352 5345
5593 5587 5582 5577 5572 5566 5560 5554 5548 5542 5535 5528 5522 5516 5509 5503 5498 5492 5485 5478 5471 5465 5459 5453 5449 5443 5437 5432 5427 5422 5416 5410 5404 5398 5392 5386 5380 5373 5367 5360 5353 5345 5338 5331
5575 5570 5565 5560 5554 5548 5542 5536 5531 5525 5519 5513 5507 5501 5495 5489 5483 5477 5471 5464 5457 5451 5445 5440 5436 5430 5425 5420 5415 5410 5404 5398 5392 5386 5380 5374 5367 5360 5354 5347 5340 5332 5325 5319
5557 5552 5547 5542 5536 5531 5526 5520 5514 5509 5503 5497 5492 5487 5481 5474 5468 5463 5457 5451 5445 5439 5433 5427 5422 5418 5413 5407 5402 5397 5392 5386 5380 5374 5368 5362 5355 5348 5341 5335 5328 5321 5315 5309
5540 5535 5531 5525 5520 5515 5510 5505 5500 5495 5489 5483 5478 5473 5467 5460 5454 5449 5444 5438 5432 5427 5422 5416 5411 5406 5401 5396 5391 5386 5381 5375 5369 5363 5357 5350 5343 5337 5330 5323 5317 5311 5306 5301
5524 5520 5515 5510 5505 5500 5495 5490 5485 5481 5476 5470 5464 5459 5453 5447 5441 5436 5431 5425 5419 5414 5410 5405 5400 5395 5390 5385 5380 5375 5370 5364 5358 5352 5345 5339 5332 5325 5319 5312 5306 5301 5297 5292
5510 5505 5501 5496 5492 5487 5482 5476 5472 5468 5463 5457 5451 5445 5440 5434 5429 5423 5418 5414 5409 5403 5399 5394 5389 5385 5380 5375 5370 5365 5360 5354 5348 5341 5335 5328 5321 5314 5308 5302 5297 5292 5289 5285
5495 5491 5487 5483 5478 5475 5470 5464 5459 5454 5450 5444 5438 5432 5427 5422 5416 5412 5407 5402 5398 5393 5388 5384 5379 5374 5370 5365 5361 5355 5350 5344 5338 5331 5324 5317 5311 5304 5298 5293 5289 5285 5282 5280
5481 5477 5474 5469 5465 5461 5457 5452 5446 5441 5436 5431 5426 5420 5414 5409 5404 5400 5396 5392 5387 5382 5378 5374 5369 5365 5360 5356 5351 5346 5341 5335 5328 5322 5315 5308 5301 5295 5290 5285 5282 5279 5276 5275
5468 5464 5461 5456 5452 5448 5444 5439 5434 5429 5424 5419 5414 5408 5402 5398 5394 5389 5385 5381 5376 5372 5368 5364 5359 5355 5351 5347 5342 5337 5332 5326 5320 5313 5307 5300 5293 5288 5283 5278 5275 5273 5272 5270
5454 5451 5448 5443 5439 5435 5431 5426 5422 5417 5412 5407 5403 5397 5392 5387 5382 5379 5375 5371 5366 5362 5358 5354 5350 5346 5342 5338 5334 5329 5323 5318 5312 5305 5299 5293 5287 5282 5277 5273 5270 5269 5268 5267
5441 5438 5435 5431 5427 5422 5418 5413 5409 5404 5399 5395 5391 5386 5381 5376 5372 5368 5364 5360 5356 5352 5349 5345 5341 5338 5334 5330 5326 5321 5316 5310 5305 5299 5293 5287 5282 5278 5273 5270 5268 5266 5266 5266
5428 5425 5422 5419 5415 5411 5406 5401 5397 5392 5387 5382 5378 5374 5370 5366 5362 5358 5354 5351 5347 5343 5340 5336 5333 5330 5326 5322 5318 5314 5309 5304 5299 5293 5288 5283 5279 5275 5272 5269 5267 5266 5266 5266